When you browse on this site, cookies collect data to enhance your experience and personalize the content and advertising you see.
Visit our Privacy Policy to learn more. By continuing to use the site, you agree to this use of cookies and data.
  • In Latvia
  • List of Countries
  • For 7 days
  • Water Temperature
  • Weather Map
  • Weather Widgets
  • user-avatar
    Login

    Hourly Weather Wisowka

    Today, 15 October, Tuesday

    Time Temperature Precipitation Wind Pressure Humidity
    00:00 +16°C° 0 mm 2 mps 749 mmHg 75%
    01:00 +15°C° 0 mm 2 mps 749 mmHg 75%
    02:00 +15°C° 0 mm 2 mps 748 mmHg 76%
    03:00 +14°C° 0 mm 2 mps 748 mmHg 77%
    04:00 +14°C° 0 mm 2 mps 747 mmHg 77%
    05:00 +13°C° 0 mm 3 mps 747 mmHg 77%
    06:00 +13°C° 0 mm 4 mps 747 mmHg 77%
    07:00 +13°C° 0 mm 4 mps 747 mmHg 76%
    08:00 +14°C° 0 mm 4 mps 747 mmHg 71%
    09:00 +17°C° 0 mm 4 mps 746 mmHg 65%
    10:00 +19°C° 0 mm 5 mps 746 mmHg 59%
    11:00 +20°C° 0 mm 5 mps 746 mmHg 57%
    12:00 +21°C° 0 mm 5 mps 745 mmHg 54%
    13:00 +22°C° 0 mm 5 mps 745 mmHg 52%
    14:00 +21°C° 0 mm 4 mps 745 mmHg 55%
    15:00 +20°C° 0 mm 3 mps 744 mmHg 59%
    16:00 +20°C° 0 mm 3 mps 744 mmHg 62%
    17:00 +19°C° 0 mm 3 mps 744 mmHg 65%
    18:00 +18°C° 0 mm 3 mps 744 mmHg 68%
    19:00 +17°C° 0 mm 3 mps 744 mmHg 72%
    20:00 +16°C° 0 mm 3 mps 744 mmHg 73%
    21:00 +16°C° 0 mm 3 mps 744 mmHg 75%
    22:00 +14°C° 0 mm 3 mps 743 mmHg 76%
    23:00 +14°C° 0 mm 3 mps 743 mmHg 78%

    Tomorrow, 16 October, Wednesday

    Time Temperature Precipitation Wind Pressure Humidity
    00:00 +13°C° 0 mm 3 mps 743 mmHg 79%
    01:00 +13°C° 0 mm 3 mps 743 mmHg 80%
    02:00 +13°C° 0 mm 3 mps 743 mmHg 78%
    03:00 +13°C° 0 mm 4 mps 743 mmHg 75%
    04:00 +13°C° 0 mm 4 mps 743 mmHg 72%
    05:00 +14°C° 0 mm 4 mps 743 mmHg 74%
    06:00 +14°C° 0 mm 5 mps 743 mmHg 75%
    07:00 +14°C° 0 mm 6 mps 743 mmHg 76%
    08:00 +15°C° 0 mm 6 mps 744 mmHg 73%
    09:00 +16°C° 0 mm 7 mps 745 mmHg 70%
    10:00 +17°C° 0 mm 7 mps 745 mmHg 66%
    11:00 +18°C° 0 mm 7 mps 746 mmHg 63%
    12:00 +18°C° 0 mm 7 mps 746 mmHg 60%
    13:00 +18°C° 0 mm 7 mps 746 mmHg 56%
    14:00 +17°C° 0 mm 6 mps 746 mmHg 57%
    15:00 +17°C° 0 mm 5 mps 746 mmHg 58%
    16:00 +16°C° 0 mm 5 mps 746 mmHg 59%
    17:00 +15°C° 0 mm 4 mps 747 mmHg 61%
    18:00 +14°C° 0 mm 4 mps 747 mmHg 63%
    19:00 +13°C° 0 mm 4 mps 747 mmHg 65%
    20:00 +12°C° 0 mm 4 mps 747 mmHg 67%
    21:00 +12°C° 0 mm 4 mps 748 mmHg 68%
    22:00 +12°C° 0 mm 5 mps 748 mmHg 70%
    23:00 +12°C° 0 mm 5 mps 748 mmHg 69%

    Day after tomorrow, 17 October, Thursday

    Time Temperature Precipitation Wind Pressure Humidity
    00:00 +10°C° 0 mm 5 mps 748 mmHg 68%
    01:00 +10°C° 0 mm 5 mps 748 mmHg 68%
    02:00 +10°C° 0 mm 5 mps 748 mmHg 69%
    03:00 +11°C° 0 mm 4 mps 748 mmHg 71%
    04:00 +10°C° 0 mm 4 mps 749 mmHg 73%
    05:00 +10°C° 0 mm 4 mps 749 mmHg 73%
    06:00 +10°C° 0 mm 4 mps 749 mmHg 73%
    07:00 +10°C° 0 mm 4 mps 749 mmHg 73%
    08:00 +12°C° 0 mm 4 mps 749 mmHg 68%
    09:00 +13°C° 0 mm 4 mps 749 mmHg 64%
    10:00 +15°C° 0 mm 4 mps 749 mmHg 59%
    11:00 +17°C° 0 mm 4 mps 749 mmHg 57%
    12:00 +18°C° 0 mm 4 mps 749 mmHg 55%
    13:00 +18°C° 0 mm 3 mps 749 mmHg 54%
    14:00 +18°C° 0 mm 3 mps 749 mmHg 56%
    15:00 +17°C° 0 mm 2 mps 749 mmHg 59%
    16:00 +18°C° 0 mm 1 mps 749 mmHg 62%
    17:00 +16°C° 0 mm 1 mps 749 mmHg 63%
    18:00 +15°C° 0 mm 1 mps 749 mmHg 65%
    19:00 +14°C° 0 mm 1 mps 749 mmHg 67%
    20:00 +14°C° 0 mm 2 mps 749 mmHg 67%
    21:00 +14°C° 0 mm 2 mps 750 mmHg 67%
    22:00 +14°C° 0 mm 2 mps 750 mmHg 67%
    23:00 +14°C° 0 mm 2 mps 750 mmHg 66%

    18 October, Friday

    Time Temperature Precipitation Wind Pressure Humidity
    00:00 +14°C° 0 mm 2 mps 750 mmHg 64%
    01:00 +15°C° 0 mm 2 mps 750 mmHg 62%
    02:00 +14°C° 0 mm 2 mps 750 mmHg 66%
    03:00 +13°C° 0 mm 2 mps 750 mmHg 70%
    04:00 +13°C° 0 mm 2 mps 750 mmHg 73%
    05:00 +13°C° 0 mm 2 mps 750 mmHg 76%
    06:00 +12°C° 0 mm 2 mps 750 mmHg 79%
    07:00 +12°C° 0 mm 2 mps 750 mmHg 82%
    08:00 +13°C° 0 mm 2 mps 750 mmHg 75%
    09:00 +15°C° 0 mm 1 mps 750 mmHg 69%
    10:00 +18°C° 0 mm 1 mps 751 mmHg 62%
    11:00 +18°C° 0 mm 1 mps 751 mmHg 60%
    12:00 +19°C° 0 mm 1 mps 750 mmHg 57%
    13:00 +20°C° 0 mm 1 mps 750 mmHg 55%
    14:00 +17°C° 0 mm 0 mps 750 mmHg 58%
    15:00 +17°C° 0 mm 0 mps 750 mmHg 61%
    16:00 +16°C° 0 mm 0 mps 750 mmHg 64%
    17:00 +15°C° 0 mm 0 mps 750 mmHg 67%
    18:00 +15°C° 0 mm 1 mps 750 mmHg 70%
    19:00 +14°C° 0 mm 1 mps 750 mmHg 73%
    20:00 +14°C° 0 mm 1 mps 750 mmHg 74%
    21:00 +14°C° 0 mm 1 mps 750 mmHg 75%
    22:00 +13°C° 0 mm 1 mps 750 mmHg 77%
    23:00 +13°C° 0 mm 1 mps 750 mmHg 77%

    19 October, Saturday

    Time Temperature Precipitation Wind Pressure Humidity
    00:00 +13°C° 0 mm 1 mps 750 mmHg 78%
    01:00 +13°C° 0 mm 1 mps 750 mmHg 79%
    02:00 +13°C° 0 mm 1 mps 750 mmHg 79%
    03:00 +13°C° 0 mm 1 mps 750 mmHg 79%
    04:00 +13°C° 0 mm 1 mps 750 mmHg 79%
    05:00 +13°C° 0 mm 1 mps 750 mmHg 78%
    06:00 +13°C° 0 mm 1 mps 750 mmHg 78%
    07:00 +13°C° 0 mm 1 mps 750 mmHg 78%
    08:00 +15°C° 0 mm 2 mps 750 mmHg 74%
    09:00 +16°C° 0 mm 2 mps 750 mmHg 71%
    10:00 +17°C° 0 mm 2 mps 750 mmHg 67%
    11:00 +17°C° 0 mm 2 mps 749 mmHg 68%
    12:00 +18°C° 0 mm 1 mps 749 mmHg 68%
    13:00 +18°C° 0 mm 1 mps 749 mmHg 69%
    14:00 +18°C° 0 mm 1 mps 749 mmHg 70%
    15:00 +18°C° 0 mm 1 mps 748 mmHg 71%
    16:00 +17°C° 0 mm 2 mps 748 mmHg 72%
    17:00 +16°C° 0 mm 2 mps 748 mmHg 75%
    18:00 +16°C° 0 mm 2 mps 748 mmHg 78%
    19:00 +15°C° 0 mm 2 mps 748 mmHg 80%
    20:00 +15°C° 0 mm 2 mps 748 mmHg 82%
    21:00 +14°C° 0 mm 2 mps 747 mmHg 84%
    22:00 +14°C° 0 mm 2 mps 747 mmHg 85%
    23:00 +14°C° 0 mm 2 mps 747 mmHg 86%

    20 October, Sunday

    Time Temperature Precipitation Wind Pressure Humidity
    00:00 +14°C° 0 mm 2 mps 746 mmHg 86%
    01:00 +13°C° 0 mm 2 mps 746 mmHg 86%
    02:00 +12°C° 0 mm 3 mps 746 mmHg 87%
    03:00 +12°C° 0 mm 3 mps 745 mmHg 87%
    04:00 +12°C° 0 mm 3 mps 745 mmHg 88%
    05:00 +12°C° 0 mm 3 mps 745 mmHg 86%
    06:00 +12°C° 0 mm 3 mps 745 mmHg 84%
    07:00 +12°C° 0 mm 3 mps 745 mmHg 82%
    08:00 +14°C° 0 mm 4 mps 744 mmHg 73%
    09:00 +17°C° 0 mm 4 mps 744 mmHg 64%
    10:00 +20°C° 0 mm 5 mps 744 mmHg 55%
    11:00 +21°C° 0 mm 5 mps 744 mmHg 52%
    12:00 +22°C° 0 mm 6 mps 744 mmHg 49%
    13:00 +23°C° 0 mm 6 mps 744 mmHg 45%
    14:00 +22°C° 0 mm 5 mps 744 mmHg 48%
    15:00 +21°C° 0 mm 5 mps 744 mmHg 51%
    16:00 +20°C° 0 mm 4 mps 743 mmHg 55%
    17:00 +19°C° 0 mm 4 mps 744 mmHg 56%
    18:00 +19°C° 0 mm 4 mps 744 mmHg 58%
    19:00 +18°C° 0 mm 4 mps 745 mmHg 59%
    20:00 +18°C° 0 mm 4 mps 745 mmHg 61%
    21:00 +18°C° 0 mm 4 mps 745 mmHg 63%
    22:00 +17°C° 0 mm 3 mps 746 mmHg 65%
    23:00 +16°C° 0 mm 3 mps 746 mmHg 70%
    Show more